Starlink 6336

operational
NORAD ID: 56788 Int'l Des: 2023-078 Owner: SPXS Country: US Constellation: starlink
LEOCIRCULAR

Über Starlink 6336

Beschreibung wird geladen...

Live-Position

3D-Globus wird geladen...

Nächste Überflüge

Höhenverlauf

Altitude vs Time

uPlot chart will show altitude changes over time

Zweizeiliger Elementsatz

1 56788U 23078X 25259.78578871 .00002179 00000-0 19024-3 0 9996
2 56788 70.0006 42.9612 0003109 267.0390 93.0414 14.98347079127129
Epoch: 16. Sept. 2025 • Age: 29 hours

Aktueller Status

Höhe 592.9 km
Geschwindigkeit 7.56 km/s
Subsatellitenpunkt -61.07°S, 11°E
Startdatum 31. Mai 2023
Alter 2.2 years
Typ internet

Technische Details

Klassifizierung Payload
Masse 305.00 kg
Trockenmasse 290.00 kg
Gesamtmasse 305.00 kg
Länge 0.20 m
Durchmesser 2.80 m
Spannweite 9.00 m
Form Box + pan
Hersteller SPXS
Bus-Typ Starlink
Phasenstatus In Orbit
Besitzer/Staat SPXS/US

Große Konstellationen

Loading constellations...